Year,Month,Day,Hour,Minute,Value (Times are PST for temperature in C)
2014,06,08,00,00,11.70
2014,06,08,00,01,11.70
2014,06,08,00,02,11.70
2014,06,08,00,03,11.70
2014,06,08,00,04,11.70
2014,06,08,00,05,11.70
2014,06,08,00,06,11.70
2014,06,08,00,07,11.70
2014,06,08,00,08,11.70
2014,06,08,00,09,11.70
2014,06,08,00,10,11.70
2014,06,08,00,11,11.70
2014,06,08,00,12,11.70
2014,06,08,00,13,11.70
2014,06,08,00,14,11.70
2014,06,08,00,15,11.70
2014,06,08,00,16,11.70
2014,06,08,00,17,11.70
2014,06,08,00,18,11.70
2014,06,08,00,19,11.70
2014,06,08,00,20,11.70
2014,06,08,00,21,11.70
2014,06,08,00,22,11.70
2014,06,08,00,23,11.70
2014,06,08,00,24,11.70
2014,06,08,00,25,11.70
2014,06,08,00,26,11.70
2014,06,08,00,27,11.70
2014,06,08,00,28,11.70
2014,06,08,00,29,11.70
2014,06,08,00,30,11.70
2014,06,08,00,31,11.70
2014,06,08,00,32,11.70
2014,06,08,00,33,11.70
2014,06,08,00,34,11.70
2014,06,08,00,35,11.70
2014,06,08,00,36,11.70
2014,06,08,00,37,11.60
2014,06,08,00,38,11.60
2014,06,08,00,39,11.60
2014,06,08,00,40,11.60
2014,06,08,00,41,11.60
2014,06,08,00,42,11.60
2014,06,08,00,43,11.60
2014,06,08,00,44,11.60
2014,06,08,00,45,11.60
2014,06,08,00,46,11.60
2014,06,08,00,47,11.60
2014,06,08,00,48,11.60
2014,06,08,00,49,11.60
2014,06,08,00,50,11.60
2014,06,08,00,51,11.60
2014,06,08,00,52,11.60
2014,06,08,00,53,11.60
2014,06,08,00,54,11.60
2014,06,08,00,55,11.60
2014,06,08,00,56,11.60
2014,06,08,00,57,11.60
2014,06,08,00,58,11.60
2014,06,08,00,59,11.60
2014,06,08,01,00,11.60
2014,06,08,01,01,11.60
2014,06,08,01,02,11.60
2014,06,08,01,03,11.60
2014,06,08,01,04,11.60
2014,06,08,01,05,11.60
2014,06,08,01,06,11.60
2014,06,08,01,07,11.60
2014,06,08,01,08,11.60
2014,06,08,01,09,11.60
2014,06,08,01,10,11.60
2014,06,08,01,11,11.60
2014,06,08,01,12,11.60
2014,06,08,01,13,11.60
2014,06,08,01,14,11.60
2014,06,08,01,15,11.60
2014,06,08,01,16,11.60
2014,06,08,01,17,11.60
2014,06,08,01,18,11.60
2014,06,08,01,19,11.60
2014,06,08,01,20,11.60
2014,06,08,01,21,11.60
2014,06,08,01,22,11.60
2014,06,08,01,23,11.60
2014,06,08,01,24,11.60
2014,06,08,01,25,11.60
2014,06,08,01,26,11.60
2014,06,08,01,27,11.60
2014,06,08,01,28,11.60
2014,06,08,01,29,11.60
2014,06,08,01,30,11.60
2014,06,08,01,31,11.60
2014,06,08,01,32,11.60
2014,06,08,01,33,11.60
2014,06,08,01,34,11.60
2014,06,08,01,35,11.60
2014,06,08,01,36,11.60
2014,06,08,01,37,11.60
2014,06,08,01,38,11.60
2014,06,08,01,39,11.50
2014,06,08,01,40,11.50
2014,06,08,01,41,11.50
2014,06,08,01,42,11.50
2014,06,08,01,43,11.50
2014,06,08,01,44,11.60
2014,06,08,01,45,11.60
2014,06,08,01,46,11.60
2014,06,08,01,47,11.50
2014,06,08,01,48,11.60
2014,06,08,01,49,11.50
2014,06,08,01,50,11.50
2014,06,08,01,51,11.50
2014,06,08,01,52,11.50
2014,06,08,01,53,11.50
2014,06,08,01,54,11.50
2014,06,08,01,55,11.50
2014,06,08,01,56,11.50
2014,06,08,01,57,11.50
2014,06,08,01,58,11.50
2014,06,08,01,59,11.50
2014,06,08,02,00,11.50
2014,06,08,02,01,11.50
2014,06,08,02,02,11.50
2014,06,08,02,03,11.50
2014,06,08,02,04,11.50
2014,06,08,02,05,11.50
2014,06,08,02,06,11.50
2014,06,08,02,07,11.50
2014,06,08,02,08,11.50
2014,06,08,02,09,11.50
2014,06,08,02,10,11.50
2014,06,08,02,11,11.40
2014,06,08,02,12,11.40
2014,06,08,02,13,11.40
2014,06,08,02,14,11.40
2014,06,08,02,15,11.40
2014,06,08,02,16,11.40
2014,06,08,02,17,11.50
2014,06,08,02,18,11.50
2014,06,08,02,19,11.50
2014,06,08,02,20,11.50
2014,06,08,02,21,11.50
2014,06,08,02,22,11.40
2014,06,08,02,23,11.40
2014,06,08,02,24,11.40
2014,06,08,02,25,11.40
2014,06,08,02,26,11.40
2014,06,08,02,27,11.40
2014,06,08,02,28,11.40
2014,06,08,02,29,11.40
2014,06,08,02,30,11.40
2014,06,08,02,31,11.40
2014,06,08,02,32,11.40
2014,06,08,02,33,11.40
2014,06,08,02,34,11.40
2014,06,08,02,35,11.40
2014,06,08,02,36,11.40
2014,06,08,02,37,11.40
2014,06,08,02,38,11.40
2014,06,08,02,39,11.40
2014,06,08,02,40,11.40
2014,06,08,02,41,11.40
2014,06,08,02,42,11.40
2014,06,08,02,43,11.40
2014,06,08,02,44,11.40
2014,06,08,02,45,11.40
2014,06,08,02,46,11.40
2014,06,08,02,47,11.40
2014,06,08,02,48,11.40
2014,06,08,02,49,11.40
2014,06,08,02,50,11.40
2014,06,08,02,51,11.40
2014,06,08,02,52,11.40
2014,06,08,02,53,11.40
2014,06,08,02,54,11.40
2014,06,08,02,55,11.40
2014,06,08,02,56,11.40
2014,06,08,02,57,11.40
2014,06,08,02,58,11.40
2014,06,08,02,59,11.40
2014,06,08,03,00,11.40
2014,06,08,03,01,11.40
2014,06,08,03,02,11.40
2014,06,08,03,03,11.40
2014,06,08,03,04,11.40
2014,06,08,03,05,11.40
2014,06,08,03,06,11.40
2014,06,08,03,07,11.40
2014,06,08,03,08,11.40
2014,06,08,03,09,11.40
2014,06,08,03,10,11.40
2014,06,08,03,11,11.40
2014,06,08,03,12,11.40
2014,06,08,03,13,11.40
2014,06,08,03,14,11.40
2014,06,08,03,15,11.40
2014,06,08,03,16,11.40
2014,06,08,03,17,11.40
2014,06,08,03,18,11.40
2014,06,08,03,19,11.40
2014,06,08,03,20,11.40
2014,06,08,03,21,11.40
2014,06,08,03,22,11.40
2014,06,08,03,23,11.40
2014,06,08,03,24,11.40
2014,06,08,03,25,11.40
2014,06,08,03,26,11.40
2014,06,08,03,27,11.40
2014,06,08,03,28,11.40
2014,06,08,03,29,11.40
2014,06,08,03,30,11.40
2014,06,08,03,31,11.40
2014,06,08,03,32,11.50
2014,06,08,03,33,11.40
2014,06,08,03,34,11.50
2014,06,08,03,35,11.50
2014,06,08,03,36,11.40
2014,06,08,03,37,11.40
2014,06,08,03,38,11.40
2014,06,08,03,39,11.40
2014,06,08,03,40,11.40
2014,06,08,03,41,11.40
2014,06,08,03,42,11.50
2014,06,08,03,43,11.50
2014,06,08,03,44,11.50
2014,06,08,03,45,11.50
2014,06,08,03,46,11.50
2014,06,08,03,47,11.50
2014,06,08,03,48,11.40
2014,06,08,03,49,11.50
2014,06,08,03,50,11.50
2014,06,08,03,51,11.50
2014,06,08,03,52,11.50
2014,06,08,03,53,11.50
2014,06,08,03,54,11.50
2014,06,08,03,55,11.50
2014,06,08,03,56,11.50
2014,06,08,03,57,11.50
2014,06,08,03,58,11.50
2014,06,08,03,59,11.50
2014,06,08,04,00,11.50
2014,06,08,04,01,11.50
2014,06,08,04,02,11.50
2014,06,08,04,03,11.50
2014,06,08,04,04,11.50
2014,06,08,04,05,11.40
2014,06,08,04,06,11.40
2014,06,08,04,07,11.40
2014,06,08,04,08,11.50
2014,06,08,04,09,11.50
2014,06,08,04,10,11.50
2014,06,08,04,11,11.50
2014,06,08,04,12,11.50
2014,06,08,04,13,11.50
2014,06,08,04,14,11.50
2014,06,08,04,15,11.50
2014,06,08,04,16,11.50
2014,06,08,04,17,11.40
2014,06,08,04,18,11.50
2014,06,08,04,19,11.40
2014,06,08,04,20,11.40
2014,06,08,04,21,11.40
2014,06,08,04,22,11.40
2014,06,08,04,23,11.40
2014,06,08,04,24,11.40
2014,06,08,04,25,11.40
2014,06,08,04,26,11.40
2014,06,08,04,27,11.40
2014,06,08,04,28,11.40
2014,06,08,04,29,11.40
2014,06,08,04,30,11.40
2014,06,08,04,31,11.40
2014,06,08,04,32,11.40
2014,06,08,04,33,11.40
2014,06,08,04,34,11.40
2014,06,08,04,35,11.40
2014,06,08,04,36,11.40
2014,06,08,04,37,11.40
2014,06,08,04,38,11.40
2014,06,08,04,39,11.40
2014,06,08,04,40,11.40
2014,06,08,04,41,11.40
2014,06,08,04,42,11.40
2014,06,08,04,43,11.40
2014,06,08,04,44,11.40
2014,06,08,04,45,11.40
2014,06,08,04,46,11.40
2014,06,08,04,47,11.40
2014,06,08,04,48,11.40
2014,06,08,04,49,11.30
2014,06,08,04,50,11.30
2014,06,08,04,51,11.30
2014,06,08,04,52,11.30
2014,06,08,04,53,11.30
2014,06,08,04,54,11.30
2014,06,08,04,55,11.30
2014,06,08,04,56,11.30
2014,06,08,04,57,11.30
2014,06,08,04,58,11.30
2014,06,08,04,59,11.30
2014,06,08,05,00,11.30
2014,06,08,05,01,11.30
2014,06,08,05,02,11.30
2014,06,08,05,03,11.30
2014,06,08,05,04,11.30
2014,06,08,05,05,11.30
2014,06,08,05,06,11.30
2014,06,08,05,07,11.30
2014,06,08,05,08,11.30
2014,06,08,05,09,11.30
2014,06,08,05,10,11.30
2014,06,08,05,11,11.30
2014,06,08,05,12,11.30
2014,06,08,05,13,11.30
2014,06,08,05,14,11.30
2014,06,08,05,15,11.30
2014,06,08,05,16,11.30
2014,06,08,05,17,11.30
2014,06,08,05,18,11.30
2014,06,08,05,19,11.30
2014,06,08,05,20,11.30
2014,06,08,05,21,11.30
2014,06,08,05,22,11.30
2014,06,08,05,23,11.30
2014,06,08,05,24,11.30
2014,06,08,05,25,11.30
2014,06,08,05,26,11.30
2014,06,08,05,27,11.30
2014,06,08,05,28,11.30
2014,06,08,05,29,11.30
2014,06,08,05,30,11.30
2014,06,08,05,31,11.30
2014,06,08,05,32,11.40
2014,06,08,05,33,11.40
2014,06,08,05,34,11.40
2014,06,08,05,35,11.40
2014,06,08,05,36,11.40
2014,06,08,05,37,11.40
2014,06,08,05,38,11.40
2014,06,08,05,39,11.40
2014,06,08,05,40,11.40
2014,06,08,05,41,11.40
2014,06,08,05,42,11.40
2014,06,08,05,43,11.40
2014,06,08,05,44,11.40
2014,06,08,05,45,11.40
2014,06,08,05,46,11.40
2014,06,08,05,47,11.40
2014,06,08,05,48,11.40
2014,06,08,05,49,11.40
2014,06,08,05,50,11.40
2014,06,08,05,51,11.40
2014,06,08,05,52,11.40
2014,06,08,05,53,11.40
2014,06,08,05,54,11.40
2014,06,08,05,55,11.40
2014,06,08,05,56,11.40
2014,06,08,05,57,11.40
2014,06,08,05,58,11.40
2014,06,08,05,59,11.40
2014,06,08,06,00,11.40
2014,06,08,06,01,11.40
2014,06,08,06,02,11.40
2014,06,08,06,03,11.40
2014,06,08,06,04,11.40
2014,06,08,06,05,11.40
2014,06,08,06,06,11.40
2014,06,08,06,07,11.40
2014,06,08,06,08,11.40
2014,06,08,06,09,11.40
2014,06,08,06,10,11.40
2014,06,08,06,11,11.40
2014,06,08,06,12,11.30
2014,06,08,06,13,11.30
2014,06,08,06,14,11.30
2014,06,08,06,15,11.30
2014,06,08,06,16,11.30
2014,06,08,06,17,11.30
2014,06,08,06,18,11.30
2014,06,08,06,19,11.30
2014,06,08,06,20,11.40
2014,06,08,06,21,11.40
2014,06,08,06,22,11.40
2014,06,08,06,23,11.40
2014,06,08,06,24,11.40
2014,06,08,06,25,11.40
2014,06,08,06,26,11.40
2014,06,08,06,27,11.40
2014,06,08,06,28,11.40
2014,06,08,06,29,11.40
2014,06,08,06,30,11.40
2014,06,08,06,31,11.40
2014,06,08,06,32,11.40
2014,06,08,06,33,11.40
2014,06,08,06,34,11.40
2014,06,08,06,35,11.40
2014,06,08,06,36,11.40
2014,06,08,06,37,11.40
2014,06,08,06,38,11.30
2014,06,08,06,39,11.30
2014,06,08,06,40,11.30
2014,06,08,06,41,11.30
2014,06,08,06,42,11.30
2014,06,08,06,43,11.30
2014,06,08,06,44,11.30
2014,06,08,06,45,11.30
2014,06,08,06,46,11.30
2014,06,08,06,47,11.30
2014,06,08,06,48,11.30
2014,06,08,06,49,11.30
2014,06,08,06,50,11.30
2014,06,08,06,51,11.40
2014,06,08,06,52,11.40
2014,06,08,06,53,11.40
2014,06,08,06,54,11.40
2014,06,08,06,55,11.40
2014,06,08,06,56,11.40
2014,06,08,06,57,11.40
2014,06,08,06,58,11.40
2014,06,08,06,59,11.40
2014,06,08,07,00,11.40
2014,06,08,07,01,11.40
2014,06,08,07,02,11.50
2014,06,08,07,03,11.50
2014,06,08,07,04,11.50
2014,06,08,07,05,11.50
2014,06,08,07,06,11.50
2014,06,08,07,07,11.60
2014,06,08,07,08,11.60
2014,06,08,07,09,11.60
2014,06,08,07,10,11.60
2014,06,08,07,11,11.60
2014,06,08,07,12,11.60
2014,06,08,07,13,11.60
2014,06,08,07,14,11.60
2014,06,08,07,15,11.60
2014,06,08,07,16,11.60
2014,06,08,07,17,11.60
2014,06,08,07,18,11.60
2014,06,08,07,19,11.60
2014,06,08,07,20,11.60
2014,06,08,07,21,11.60
2014,06,08,07,22,11.60
2014,06,08,07,23,11.60
2014,06,08,07,24,11.60
2014,06,08,07,25,11.60
2014,06,08,07,26,11.60
2014,06,08,07,27,11.60
2014,06,08,07,28,11.60
2014,06,08,07,29,11.60
2014,06,08,07,30,11.70
2014,06,08,07,31,11.70
2014,06,08,07,32,11.70
2014,06,08,07,33,11.70
2014,06,08,07,34,11.70
2014,06,08,07,35,11.70
2014,06,08,07,36,11.80
2014,06,08,07,37,11.80
2014,06,08,07,38,11.70
2014,06,08,07,39,11.70
2014,06,08,07,40,11.70
2014,06,08,07,41,11.70
2014,06,08,07,42,11.70
2014,06,08,07,43,11.70
2014,06,08,07,44,11.70
2014,06,08,07,45,11.80
2014,06,08,07,46,11.80
2014,06,08,07,47,11.80
2014,06,08,07,48,11.80
2014,06,08,07,49,11.80
2014,06,08,07,50,11.80
2014,06,08,07,51,11.80
2014,06,08,07,52,11.80
2014,06,08,07,53,11.80
2014,06,08,07,54,11.80
2014,06,08,07,55,11.80
2014,06,08,07,56,11.80
2014,06,08,07,57,11.80
2014,06,08,07,58,11.80
2014,06,08,07,59,11.80
2014,06,08,08,00,11.90
2014,06,08,08,01,11.90
2014,06,08,08,02,11.90
2014,06,08,08,03,12.00
2014,06,08,08,04,12.00
2014,06,08,08,05,12.10
2014,06,08,08,06,12.10
2014,06,08,08,07,12.10
2014,06,08,08,08,12.10
2014,06,08,08,09,12.20
2014,06,08,08,10,12.20
2014,06,08,08,11,12.20
2014,06,08,08,12,12.20
2014,06,08,08,13,12.20
2014,06,08,08,14,12.20
2014,06,08,08,15,12.20
2014,06,08,08,16,12.20
2014,06,08,08,17,12.20
2014,06,08,08,18,12.20
2014,06,08,08,19,12.20
2014,06,08,08,20,12.20
2014,06,08,08,21,12.20
2014,06,08,08,22,12.20
2014,06,08,08,23,12.20
2014,06,08,08,24,12.20
2014,06,08,08,25,12.20
2014,06,08,08,26,12.30
2014,06,08,08,27,12.30
2014,06,08,08,28,12.30
2014,06,08,08,29,12.30
2014,06,08,08,30,12.30
2014,06,08,08,31,12.40
2014,06,08,08,32,12.40
2014,06,08,08,33,12.50
2014,06,08,08,34,12.50
2014,06,08,08,35,12.60
2014,06,08,08,36,12.60
2014,06,08,08,37,12.60
2014,06,08,08,38,12.70
2014,06,08,08,39,12.70
2014,06,08,08,40,12.70
2014,06,08,08,41,12.80
2014,06,08,08,42,12.80
2014,06,08,08,43,12.80
2014,06,08,08,44,12.80
2014,06,08,08,45,12.90
2014,06,08,08,46,12.90
2014,06,08,08,47,12.90
2014,06,08,08,48,12.90
2014,06,08,08,49,13.00
2014,06,08,08,50,13.00
2014,06,08,08,51,13.00
2014,06,08,08,52,13.10
2014,06,08,08,53,13.10
2014,06,08,08,54,13.10
2014,06,08,08,55,13.10
2014,06,08,08,56,13.10
2014,06,08,08,57,13.10
2014,06,08,08,58,13.10
2014,06,08,08,59,13.10
2014,06,08,09,00,13.10
2014,06,08,09,01,13.10
2014,06,08,09,02,13.20
2014,06,08,09,03,13.20
2014,06,08,09,04,13.20
2014,06,08,09,05,13.20
2014,06,08,09,06,13.20
2014,06,08,09,07,13.30
2014,06,08,09,08,13.30
2014,06,08,09,09,13.30
2014,06,08,09,10,13.40
2014,06,08,09,11,13.40
2014,06,08,09,12,13.50
2014,06,08,09,13,13.50
2014,06,08,09,14,13.60
2014,06,08,09,15,13.60
2014,06,08,09,16,13.60
2014,06,08,09,17,13.60
2014,06,08,09,18,13.60
2014,06,08,09,19,13.60
2014,06,08,09,20,13.70
2014,06,08,09,21,13.70
2014,06,08,09,22,13.70
2014,06,08,09,23,13.80
2014,06,08,09,24,13.80
2014,06,08,09,25,13.90
2014,06,08,09,26,13.90
2014,06,08,09,27,14.00
2014,06,08,09,28,14.10
2014,06,08,09,29,14.10
2014,06,08,09,30,14.10
2014,06,08,09,31,14.10
2014,06,08,09,32,14.10
2014,06,08,09,33,14.20
2014,06,08,09,34,14.20
2014,06,08,09,35,14.20
2014,06,08,09,36,14.20
2014,06,08,09,37,14.30
2014,06,08,09,38,14.30
2014,06,08,09,39,14.30
2014,06,08,09,40,14.20
2014,06,08,09,41,14.20
2014,06,08,09,42,14.20
2014,06,08,09,43,14.20
2014,06,08,09,44,14.20
2014,06,08,09,45,14.20
2014,06,08,09,46,14.20
2014,06,08,09,47,14.20
2014,06,08,09,48,14.20
2014,06,08,09,49,14.20
2014,06,08,09,50,14.10
2014,06,08,09,51,14.10
2014,06,08,09,52,14.10
2014,06,08,09,53,14.10
2014,06,08,09,54,14.10
2014,06,08,09,55,14.10
2014,06,08,09,56,14.10
2014,06,08,09,57,14.10
2014,06,08,09,58,14.10
2014,06,08,09,59,14.10
2014,06,08,10,00,14.10
2014,06,08,10,01,14.10
2014,06,08,10,02,14.10
2014,06,08,10,03,14.10
2014,06,08,10,04,14.10
2014,06,08,10,05,14.20
2014,06,08,10,06,14.20
2014,06,08,10,07,14.30
2014,06,08,10,08,14.30
2014,06,08,10,09,14.30
2014,06,08,10,10,14.40
2014,06,08,10,11,14.40
2014,06,08,10,12,14.50
2014,06,08,10,13,14.60
2014,06,08,10,14,14.70
2014,06,08,10,15,14.70
2014,06,08,10,16,14.80
2014,06,08,10,17,14.80
2014,06,08,10,18,14.80
2014,06,08,10,19,14.80
2014,06,08,10,20,14.80
2014,06,08,10,21,14.90
2014,06,08,10,22,14.90
2014,06,08,10,23,14.80
2014,06,08,10,24,14.80
2014,06,08,10,25,14.80
2014,06,08,10,26,14.80
2014,06,08,10,27,14.90
2014,06,08,10,28,14.90
2014,06,08,10,29,14.90
2014,06,08,10,30,14.80
2014,06,08,10,31,14.80
2014,06,08,10,32,14.80
2014,06,08,10,33,14.80
2014,06,08,10,34,14.90
2014,06,08,10,35,14.90
2014,06,08,10,36,15.00
2014,06,08,10,37,15.10
2014,06,08,10,38,15.10
2014,06,08,10,39,15.20
2014,06,08,10,40,15.20
2014,06,08,10,41,15.30
2014,06,08,10,42,15.30
2014,06,08,10,43,15.40
2014,06,08,10,44,15.40
2014,06,08,10,45,15.50
2014,06,08,10,46,15.50
2014,06,08,10,47,15.60
2014,06,08,10,48,15.60
2014,06,08,10,49,15.60
2014,06,08,10,50,15.60
2014,06,08,10,51,15.60
2014,06,08,10,52,15.60
2014,06,08,10,53,15.70
2014,06,08,10,54,15.70
2014,06,08,10,55,15.70
2014,06,08,10,56,15.70
2014,06,08,10,57,15.70
2014,06,08,10,58,15.70
2014,06,08,10,59,15.70
2014,06,08,11,00,15.80
2014,06,08,11,01,15.80
2014,06,08,11,02,15.80
2014,06,08,11,03,15.80
2014,06,08,11,04,15.70
2014,06,08,11,05,15.70
2014,06,08,11,06,15.80
2014,06,08,11,07,15.80
2014,06,08,11,08,15.70
2014,06,08,11,09,15.70
2014,06,08,11,10,15.70
2014,06,08,11,11,15.60
2014,06,08,11,12,15.60
2014,06,08,11,13,15.70
2014,06,08,11,14,15.70
2014,06,08,11,15,15.80
2014,06,08,11,16,15.80
2014,06,08,11,17,15.90
2014,06,08,11,18,16.00
2014,06,08,11,19,16.00
2014,06,08,11,20,16.10
2014,06,08,11,21,16.20
2014,06,08,11,22,16.20
2014,06,08,11,23,16.30
2014,06,08,11,24,16.30
2014,06,08,11,25,16.30
2014,06,08,11,26,16.30
2014,06,08,11,27,16.30
2014,06,08,11,28,16.30
2014,06,08,11,29,16.40
2014,06,08,11,30,16.30
2014,06,08,11,31,16.30
2014,06,08,11,32,16.30
2014,06,08,11,33,16.20
2014,06,08,11,34,16.20
2014,06,08,11,35,16.20
2014,06,08,11,36,16.30
2014,06,08,11,37,16.30
2014,06,08,11,38,16.30
2014,06,08,11,39,16.20
2014,06,08,11,40,16.20
2014,06,08,11,41,16.20
2014,06,08,11,42,16.20
2014,06,08,11,43,16.20
2014,06,08,11,44,16.30
2014,06,08,11,45,16.30
2014,06,08,11,46,16.30
2014,06,08,11,47,16.30
2014,06,08,11,48,16.40
2014,06,08,11,49,16.30
2014,06,08,11,50,16.40
2014,06,08,11,51,16.40
2014,06,08,11,52,16.50
2014,06,08,11,53,16.50
2014,06,08,11,54,16.60
2014,06,08,11,55,16.70
2014,06,08,11,56,16.80
2014,06,08,11,57,16.90
2014,06,08,11,58,16.90
2014,06,08,11,59,16.90
2014,06,08,12,00,16.90
2014,06,08,12,01,17.00
2014,06,08,12,02,17.10
2014,06,08,12,03,17.10
2014,06,08,12,04,17.10
2014,06,08,12,05,17.00
2014,06,08,12,06,17.00
2014,06,08,12,07,17.10
2014,06,08,12,08,17.10
2014,06,08,12,09,17.00
2014,06,08,12,10,17.00
2014,06,08,12,11,16.90
2014,06,08,12,12,16.90
2014,06,08,12,13,16.90
2014,06,08,12,14,16.90
2014,06,08,12,15,16.90
2014,06,08,12,16,16.80
2014,06,08,12,17,16.90
2014,06,08,12,18,16.90
2014,06,08,12,19,16.90
2014,06,08,12,20,16.90
2014,06,08,12,21,16.80
2014,06,08,12,22,16.80
2014,06,08,12,23,16.80
2014,06,08,12,24,16.80
2014,06,08,12,25,16.80
2014,06,08,12,26,16.90
2014,06,08,12,27,16.90
2014,06,08,12,28,17.00
2014,06,08,12,29,17.00
2014,06,08,12,30,17.10
2014,06,08,12,31,17.10
2014,06,08,12,32,17.10
2014,06,08,12,33,17.10
2014,06,08,12,34,17.20
2014,06,08,12,35,17.20
2014,06,08,12,36,17.30
2014,06,08,12,37,17.40
2014,06,08,12,38,17.50
2014,06,08,12,39,17.70
2014,06,08,12,40,17.70
2014,06,08,12,41,17.80
2014,06,08,12,42,17.90
2014,06,08,12,43,18.10
2014,06,08,12,44,18.20
2014,06,08,12,45,18.20
2014,06,08,12,46,18.10
2014,06,08,12,47,18.00
2014,06,08,12,48,17.90
2014,06,08,12,49,17.90
2014,06,08,12,50,18.00
2014,06,08,12,51,18.00
2014,06,08,12,52,18.00
2014,06,08,12,53,18.00
2014,06,08,12,54,17.90
2014,06,08,12,55,18.00
2014,06,08,12,56,18.10
2014,06,08,12,57,18.20
2014,06,08,12,58,18.20
2014,06,08,12,59,18.30
2014,06,08,13,00,18.30
2014,06,08,13,01,18.30
2014,06,08,13,02,18.30
2014,06,08,13,03,18.30
2014,06,08,13,04,18.20
2014,06,08,13,05,18.20
2014,06,08,13,06,18.20
2014,06,08,13,07,18.20
2014,06,08,13,08,18.20
2014,06,08,13,09,18.20
2014,06,08,13,10,18.30
2014,06,08,13,11,18.30
2014,06,08,13,12,18.30
2014,06,08,13,13,18.30
2014,06,08,13,14,18.30
2014,06,08,13,15,18.30
2014,06,08,13,16,18.30
2014,06,08,13,17,18.30
2014,06,08,13,18,18.30
2014,06,08,13,19,18.30
2014,06,08,13,20,18.40
2014,06,08,13,21,18.40
2014,06,08,13,22,18.40
2014,06,08,13,23,18.50
2014,06,08,13,24,18.60
2014,06,08,13,25,18.60
2014,06,08,13,26,18.60
2014,06,08,13,27,18.60
2014,06,08,13,28,18.60
2014,06,08,13,29,18.60
2014,06,08,13,30,18.60
2014,06,08,13,31,18.70
2014,06,08,13,32,18.80
2014,06,08,13,33,18.80
2014,06,08,13,34,18.90
2014,06,08,13,35,19.00
2014,06,08,13,36,19.00
2014,06,08,13,37,19.20
2014,06,08,13,38,19.20
2014,06,08,13,39,19.20
2014,06,08,13,40,19.20
2014,06,08,13,41,19.20
2014,06,08,13,42,19.10
2014,06,08,13,43,19.10
2014,06,08,13,44,19.00
2014,06,08,13,45,19.00
2014,06,08,13,46,18.90
2014,06,08,13,47,18.90
2014,06,08,13,48,18.80
2014,06,08,13,49,18.90
2014,06,08,13,50,18.90
2014,06,08,13,51,19.00
2014,06,08,13,52,19.10
2014,06,08,13,53,19.10
2014,06,08,13,54,19.10
2014,06,08,13,55,19.00
2014,06,08,13,56,19.00
2014,06,08,13,57,19.00
2014,06,08,13,58,18.90
2014,06,08,13,59,19.00
2014,06,08,14,00,19.00
2014,06,08,14,01,19.00
2014,06,08,14,02,19.00
2014,06,08,14,03,19.10
2014,06,08,14,04,19.10
2014,06,08,14,05,19.20
2014,06,08,14,06,19.30
2014,06,08,14,07,19.30
2014,06,08,14,08,19.40
2014,06,08,14,09,19.40
2014,06,08,14,10,19.50
2014,06,08,14,11,19.60
2014,06,08,14,12,19.70
2014,06,08,14,13,19.80
2014,06,08,14,14,19.80
2014,06,08,14,15,19.90
2014,06,08,14,16,19.90
2014,06,08,14,17,20.00
2014,06,08,14,18,20.00
2014,06,08,14,19,20.10
2014,06,08,14,20,20.20
2014,06,08,14,21,20.20
2014,06,08,14,22,20.30
2014,06,08,14,23,20.50
2014,06,08,14,24,20.60
2014,06,08,14,25,20.80
2014,06,08,14,26,20.80
2014,06,08,14,27,20.80
2014,06,08,14,28,20.80
2014,06,08,14,29,20.70
2014,06,08,14,30,20.60
2014,06,08,14,31,20.50
2014,06,08,14,32,20.50
2014,06,08,14,33,20.50
2014,06,08,14,34,20.50
2014,06,08,14,35,20.40
2014,06,08,14,36,20.40
2014,06,08,14,37,20.50
2014,06,08,14,38,20.40
2014,06,08,14,39,20.50
2014,06,08,14,40,20.50
2014,06,08,14,41,20.40
2014,06,08,14,42,20.40
2014,06,08,14,43,20.40
2014,06,08,14,44,20.40
2014,06,08,14,45,20.40
2014,06,08,14,46,20.30
2014,06,08,14,47,20.30
2014,06,08,14,48,20.30
2014,06,08,14,49,20.40
2014,06,08,14,50,20.40
2014,06,08,14,51,20.40
2014,06,08,14,52,20.30
2014,06,08,14,53,20.30
2014,06,08,14,54,20.30
2014,06,08,14,55,20.20
2014,06,08,14,56,20.10
2014,06,08,14,57,20.10
2014,06,08,14,58,20.20
2014,06,08,14,59,20.30
2014,06,08,15,00,20.40
2014,06,08,15,01,20.40
2014,06,08,15,02,20.40
2014,06,08,15,03,20.50
2014,06,08,15,04,20.40
2014,06,08,15,05,20.40
2014,06,08,15,06,20.40
2014,06,08,15,07,20.40
2014,06,08,15,08,20.40
2014,06,08,15,09,20.50
2014,06,08,15,10,20.60
2014,06,08,15,11,20.70
2014,06,08,15,12,20.80
2014,06,08,15,13,20.90
2014,06,08,15,14,21.00
2014,06,08,15,15,21.10
2014,06,08,15,16,21.10
2014,06,08,15,17,21.10
2014,06,08,15,18,21.10
2014,06,08,15,19,21.10
2014,06,08,15,20,21.10
2014,06,08,15,21,21.00
2014,06,08,15,22,20.80
2014,06,08,15,23,20.80
2014,06,08,15,24,20.70
2014,06,08,15,25,20.60
2014,06,08,15,26,20.60
2014,06,08,15,27,20.60
2014,06,08,15,28,20.50
2014,06,08,15,29,20.50
2014,06,08,15,30,20.50
2014,06,08,15,31,20.40
2014,06,08,15,32,20.40
2014,06,08,15,33,20.30
2014,06,08,15,34,20.30
2014,06,08,15,35,20.20
2014,06,08,15,36,20.10
2014,06,08,15,37,20.00
2014,06,08,15,38,20.00
2014,06,08,15,39,19.90
2014,06,08,15,40,19.90
2014,06,08,15,41,19.90
2014,06,08,15,42,19.90
2014,06,08,15,43,19.90
2014,06,08,15,44,19.90
2014,06,08,15,45,19.80
2014,06,08,15,46,19.70
2014,06,08,15,47,19.60
2014,06,08,15,48,19.50
2014,06,08,15,49,19.40
2014,06,08,15,50,19.40
2014,06,08,15,51,19.40
2014,06,08,15,52,19.50
2014,06,08,15,53,19.70
2014,06,08,15,54,19.70
2014,06,08,15,55,19.70
2014,06,08,15,56,19.70
2014,06,08,15,57,19.70
2014,06,08,15,58,19.70
2014,06,08,15,59,19.60
2014,06,08,16,00,19.60
2014,06,08,16,01,19.50
2014,06,08,16,02,19.40
2014,06,08,16,03,19.40
2014,06,08,16,04,19.30
2014,06,08,16,05,19.30
2014,06,08,16,06,19.30
2014,06,08,16,07,19.30
2014,06,08,16,08,19.30
2014,06,08,16,09,19.30
2014,06,08,16,10,19.30
2014,06,08,16,11,19.30
2014,06,08,16,12,19.30
2014,06,08,16,13,19.30
2014,06,08,16,14,19.30
2014,06,08,16,15,19.40
2014,06,08,16,16,19.40
2014,06,08,16,17,19.40
2014,06,08,16,18,19.40
2014,06,08,16,19,19.30
2014,06,08,16,20,19.20
2014,06,08,16,21,19.20
2014,06,08,16,22,19.20
2014,06,08,16,23,19.10
2014,06,08,16,24,19.10
2014,06,08,16,25,19.10
2014,06,08,16,26,19.10
2014,06,08,16,27,19.10
2014,06,08,16,28,19.10
2014,06,08,16,29,19.10
2014,06,08,16,30,19.00
2014,06,08,16,31,18.90
2014,06,08,16,32,18.80
2014,06,08,16,33,18.80
2014,06,08,16,34,18.80
2014,06,08,16,35,18.70
2014,06,08,16,36,18.70
2014,06,08,16,37,18.70
2014,06,08,16,38,18.70
2014,06,08,16,39,18.70
2014,06,08,16,40,18.70
2014,06,08,16,41,18.80
2014,06,08,16,42,18.80
2014,06,08,16,43,18.80
2014,06,08,16,44,18.80
2014,06,08,16,45,18.70
2014,06,08,16,46,18.70
2014,06,08,16,47,18.70
2014,06,08,16,48,18.60
2014,06,08,16,49,18.40
2014,06,08,16,50,18.40
2014,06,08,16,51,18.40
2014,06,08,16,52,18.30
2014,06,08,16,53,18.30
2014,06,08,16,54,18.30
2014,06,08,16,55,18.20
2014,06,08,16,56,18.20
2014,06,08,16,57,18.20
2014,06,08,16,58,18.10
2014,06,08,16,59,18.10
2014,06,08,17,00,18.00
2014,06,08,17,01,18.00
2014,06,08,17,02,17.90
2014,06,08,17,03,17.90
2014,06,08,17,04,17.90
2014,06,08,17,05,17.90
2014,06,08,17,06,17.80
2014,06,08,17,07,17.80
2014,06,08,17,08,17.70
2014,06,08,17,09,17.70
2014,06,08,17,10,17.70
2014,06,08,17,11,17.70
2014,06,08,17,12,17.70
2014,06,08,17,13,17.70
2014,06,08,17,14,17.70
2014,06,08,17,15,17.70
2014,06,08,17,16,17.70
2014,06,08,17,17,17.60
2014,06,08,17,18,17.60
2014,06,08,17,19,17.50